Torna al catalogo

STARLINK-34874

AttivoComunicazioniVLEO
NORAD 65335·PAYLOAD·🇺🇸 United States

Lanciato Aug 27, 2025 da Cape Canaveral Space Force Station

Loading…

Prossimi Passaggi (prossime 24 ore)

TLE

AggiornatoSource: CelesTrak SupGP

Epoca: Sep 14, 2026, 22:52 UTC

1 65335C 25189N   26257.95326389  .00012298  00000+0  36350-3 0  2572
2 65335  53.1586  45.7388 0001228  82.4194 166.2823 15.34371086    15

Traccia STARLINK-34874 in tempo reale con AllMySat

Download on the App Store